Location: Baggett Branch
(32.6074°N, 97.0167°W)
Time: 23:03:46
(UTC+00:00)

Cosmos 1980 Rocket - Pass Details

Date: 10 February 2026
Orbit: 828 x 849 km, 71.0° (Epoch: 11 March)

Event Time Altitude Azimuth Distance (km) Brightness Sun altitude
Rises 11:59:49 0° 207° (SSW) 3,356 5.1 -16.4°
Reaches altitude 10° 12:02:16 10° 210° (SSW) 2,424 4.4 -15.9°
Maximum altitude 12:07:46 64° 292° (WNW) 916 2.1 -14.8°
Drops below altitude 10° 12:13:18 10° 13° (NNE) 2,435 4.7 -13.6°
Sets 12:15:47 0° 17° (NNE) 3,373 5.4 -13.1°
